Погода в Моссенджо

Республика Конго     2°56′47″S   12°42′36″E
темп.,
°C
ветер,
м/с
пор.,
м/с
влажн.,
%
обл.,
%
осадки,
мм/ч
давл.,
гПа
погр.,
м
11 апреля, вс
вс1101:00+21вюв1399100 0.4 1010137
04:00+21св1398100 0.3 100981
07:00+21всв1199100 1.5 101133
10:00+25в2378100 0.0 1012401
13:00+24в1482100 0.0 1010234
16:00+23св1187100 0.0 100921
19:00+22св1182100 0.0 101112
22:00+20вюв119596 2.0 101312
12 апреля, пн
пн1201:00+20ссв1199100 3.2 101216
04:00+20св1198100 0.0 101216
07:00+21св119793 0.0 101357
10:00+26в1273100 0.0 1014514
13:00+27в116790 0.0 1012638
16:00+29юз125519 0.0 10091163
19:00+22юз149521 1.1 101182
22:00+22ююз1298100 3.9 101351
13 апреля, вт
вт1301:00+21з009936 3.9 101215
04:00+21юв119967 0.0 101214
07:00+21всв119821 0.0 101367
10:00+29юв13605 0.0 1014910
13:00+33юв244498 0.0 10102355
16:00+25ююз268173 0.4 1009195
19:00+22ююв159798 4.5 101197
22:00+22ссз1196100 2.6 101324
14 апреля, ср
ср1401:00+21ю0098100 7.8 101216
04:00+21з119999 4.9 101245
07:00+21зсз13100100 7.3 1013122
10:00+23в129497 1.4 1014218
13:00+30юв2357100 1.4 10101325
16:00+27юз227663 1.5 1008486
19:00+23з1196100 5.9 101033
22:00+22зсз1398100 3.3 101277
15 апреля, чт
чт1501:00+21з0099100 8.2 101121
04:00+20з009960 1.2 101114
07:00+21всв119877 1.2 101239
10:00+28в116744 0.0 1013681
13:00+28юз018228 2.1 1010936
16:00+27ю1181100 2.2 1008419
19:00+23ююв1398100 5.6 101071
22:00+22ююз159998 2.4 1012166